SCP
0 0 0 0 0 0 0 0 0 0 0 0 1 0 0 0 0 0 0 0 0 0 0 0 0 0 0 0 0 0 0 0 0 0 0 0 0 0 0 0 0 0 0 0
0 0 0 0 0 0 0 0 0 0 0 0 0 0 0 0 0 0 0 0 0 0 0 0 0 0 0 0 0 0 0 0 0 0 0 0 0 0 0 0 0 0 0 0
0 0 0 0 0 0 0 0 0 0 0 0 0 0 0 0 0 0 0 0 0 0 0 0 0 0 0 0 0 0 0 0 0 0 0 0 0 0 0 0 0 0 0 0
0 0 0 0 0 0 0 0 0 0 0 0 0 0 0 0 0 0 0 0 0 0 1 1 0 0 0 0 0 0 0 0 0 0 0 0 0 0 0 0 0 0 0 0
0 0 0 0 0 0 0 0 0 0 0 0 0 0 0 0 0 0 0 0 0 1 1 0 0 0 0 0 0 0 0 0 0 0 0 0 0 0 0 0 0 0 0 0
0 1 0 0 0 0 0 0 0 0 0 0 0 0 0 0 0 0 1 1 1 0 0 0 0 0 0 0 0 0 0 0 0 0 0 0 0 0 0 0 0 0 0 0
0 0 0 0 0 0 0 0 0 0 0 0 0 1 1 1 1 1 1 0 0 0 0 0 0 0 0 0 0 0 0 0 0 0 0 0 0 0 0 0 0 0 0 0
0 -0 0 0 0 0 1 1 0 0 0 1 0 0 0 0 0 0 0 0 0 0 0 0 0 0 0 0 0 0 0 0 0 0 0 0 0 0 0 0 0 0 0 0
0 0 0 0 0 0 0 0 0 0 0 0 0 0 0 0 0 0 0 0 0 0 0 0 0 0 0 0 0 0 0 0 0 0 0 0 0 0 0 0 0 0 0 0
0 0 0 0 0 0 0 0 0 0 -0 0 0 0 0 0 0 0 0 0 0 0 0 0 0 0 0 0 0 0 0 0 0 0 0 0 0 0 0 0 0 0 0 0
0 0 0 -0 0 0 0 0 0 0 0 0 0 0 0 0 0 0 0 0 0 0 0 0 0 0 0 0 0 0 0 0 0 0 0 0 0 0 0 0 0 0 0 0
0 0 0 0 0 -0 0 0 0 0 0 0 0 0 0 0 0 0 0 0 0 0 0 0 0 0 0 0 0 0 0 0 0 0 0 0 0 0 0 0 0 0 0 0
0 0 0 0 0 0 0 0 0 0 0 0 0 0 0 0 0 0 0 0 0 0 0 0 0 0 0 0 0 0 0 0 0 0 0 0 0 0 0 0 0 0 0 0
-0 0 0 -0 -0 -0 -0 -0 0 0 0 0 0 0 0 0 0 0 0 0 0 0 0 0 0 0 0 0 0 0 0 0 0 0 0 0 0 0 0 0 0 0 0 0
-0 -0 -0 -0 -0 -0 -0 -0 0 0 0 0 0 0 0 0 0 0 0 0 0 0 0 0 0 0 0 0 0 0 0 0 0 0 0 0 0 0 0 0 0 0 0 0
-0 -0 -0 -0 -0 -0 -0 -0 -0 0 0 0 0 0 0 -0 -0 -0 -0 0 0 0 0 0 0 0 0 0 0 0 0 0 0 0 0 0 0 0 0 0 0 0 0 0
-0 -0 -0 -0 -0 0 -0 -0 0 0 -0 -0 -0 0 -0 -0 -0 -0 0 0 0 0 0 0 0 0 0 0 0 0 0 0 0 0 0 -0 -0 0 0 0 0 0 0 -0
-0 -0 0 0 0 0 -0 -0 0 0 0 0 0 -0 0 -0 -0 -0 0 0 0 0 0 0 0 0 0 0 0 0 0 0 0 0 -0 0 0 0 0 0 0 0 0 -0
0 0 0 0 0 0 0 0 0 0 0 0 -0 0 0 0 -0 0 0 0 0 0 0 0 0 0 0 0 0 0 0 0 0 -0 0 0 0 0 0 0 0 0 0 0
0 0 0 0 0 0 0 0 0 0 0 0 0 0 -0 -0 -0 -0 0 0 0 0 0 0 0 0 0 0 0 0 0 0 0 0 0 0 0 0 0 0 0 0 0 0
0 0 0 0 0 0 0 0 0 0 0 -0 -0 0 0 0 0 0 0 0 0 0 0 0 0 0 0 0 0 0 0 0 0 0 0 0 0 0 0 0 0 0 0 0
0 0 0 0 0 0 0 0 0 0 0 0 0 0 0 -0 -0 0 0 0 0 0 0 0 0 0 0 0 0 0 -0 0 -0 0 0 0 0 0 0 0 0 0 0 0
0 0 0 -0 -0 -0 0 0 0 0 0 0 0 0 0 0 0 0 0 0 0 0 0 0 0 0 0 0 0 0 -0 -0 -0 0 0 0 0 0 0 0 0 0 0 0
-0 0 0 -0 -0 -0 0 0 0 0 0 0 0 0 0 0 0 0 0 0 0 0 0 0 0 0 0 0 0 0 0 -0 -0 0 0 -0 0 0 0 0 0 0 0 0
-0 0 0 -0 -0 0 0 0 0 0 0 0 0 0 0 0 0 0 0 0 0 0 0 0 0 0 0 0 0 0 0 0 -0 -0 -0 -0 0 0 0 0 0 0 0 0
-0 -0 -0 -0 0 0 0 0 0 0 0 0 0 0 0 0 0 0 0 0 0 0 0 0 0 0 0 0 0 0 0 0 -0 -0 0 -0 0 0 0 0 0 0 0 0
0 -0 0 0 0 0 0 0 0 0 0 0 0 0 0 0 0 0 0 0 0 0 0 0 0 0 0 0 0 0 0 0 -0 -0 0 0 -0 0 0 0 0 0 0 0
Wind_Speed_500mb
58 59 58 58 45 50 51 49 43 44 42 42 24 9 53 42 27 31 40 39 42 44 42 39 34 27 29 26 24 21 17 14 13 12 13 17 23 29 32 37 35 35 36 36
54 54 53 56 53 61 56 48 51 48 50 38 47 75 67 46 40 40 39 39 44 46 41 37 32 30 29 26 22 19 15 14 13 15 17 22 27 31 33 33 34 35 37 37
49 47 50 46 65 50 50 49 47 50 49 39 38 41 46 35 31 28 36 41 43 47 45 32 29 28 26 23 21 17 14 13 14 18 23 27 30 31 32 33 36 37 38 36
31 38 47 46 40 49 51 52 42 45 56 52 48 39 28 22 34 30 32 35 35 38 30 26 28 28 23 22 18 14 12 13 17 22 26 29 31 31 32 33 36 37 38 36
34 35 34 45 33 31 30 34 33 39 40 40 40 42 27 12 6 10 15 12 20 28 36 36 29 23 21 19 14 10 12 16 19 23 27 28 31 33 34 36 34 35 35 36
27 30 50 48 39 32 26 27 27 19 23 22 28 25 8 23 21 21 23 29 35 39 38 34 24 21 18 13 9 10 13 16 20 23 26 29 31 32 36 33 36 35 36 36
36 33 30 21 7 14 26 3 25 23 28 29 17 28 40 34 34 36 41 41 36 33 31 26 20 13 9 5 6 10 14 18 21 23 27 27 27 31 34 32 37 40 42 39
27 33 36 51 7 13 22 23 26 35 51 30 40 33 46 47 43 41 43 42 36 33 28 19 11 4 1 5 10 14 18 21 24 27 28 27 31 34 30 34 37 39 40 36
4 9 26 31 28 23 18 21 13 11 40 20 51 47 47 48 45 42 38 34 28 25 20 13 11 9 5 9 14 19 22 25 27 29 30 31 31 33 32 30 33 33 33 34
12 11 30 10 26 24 23 19 20 19 4 13 43 45 48 45 42 38 33 28 21 17 13 9 10 11 12 16 20 23 26 27 29 31 32 31 31 30 31 31 34 33 36 36
21 10 17 23 19 34 23 9 15 20 18 37 46 44 40 37 34 31 27 23 19 15 11 9 11 15 17 19 22 25 27 30 31 30 34 36 34 34 35 37 36 38 40 43
14 31 26 30 31 33 21 9 4 11 39 41 54 46 38 31 27 24 22 19 16 15 11 11 13 15 18 22 26 30 34 33 36 39 37 37 38 43 40 44 47 53 58 59
25 26 25 19 37 40 7 31 27 44 48 50 44 33 28 24 22 25 20 19 17 14 13 13 14 17 22 27 30 33 36 38 39 41 41 44 49 51 53 46 52 50 52 46
25 13 26 29 21 33 64 67 64 63 57 48 50 26 23 24 23 22 21 18 15 14 14 16 21 23 25 28 33 36 37 43 40 43 46 47 47 49 49 49 56 56 54 56
50 42 41 32 35 49 60 59 62 52 43 38 37 28 25 26 25 23 20 17 16 16 17 19 20 24 30 35 38 40 40 40 41 43 43 52 48 48 52 57 67 70 70 66
54 48 37 45 41 41 45 45 44 38 35 35 33 30 27 26 24 23 22 22 20 18 20 23 25 30 35 34 38 39 40 42 43 46 50 50 49 51 54 60 63 65 68 65
44 44 39 39 36 38 38 33 34 33 32 32 30 27 26 24 22 22 22 22 22 20 24 27 29 36 34 36 39 39 39 44 49 49 50 48 50 53 56 58 58 59 59 55
42 39 37 36 35 35 34 33 33 32 33 31 30 27 25 23 22 21 22 23 22 21 26 28 36 36 34 35 43 40 42 50 54 51 50 49 50 54 54 55 55 57 59 57
44 43 38 36 35 35 34 34 33 32 30 28 27 26 25 24 23 23 22 24 25 27 27 30 38 34 39 40 46 39 45 52 59 60 54 51 51 53 56 57 57 57 55 51
31 35 35 35 33 32 32 30 29 28 26 25 23 21 22 23 22 23 21 21 24 29 23 31 35 38 46 44 43 48 48 51 62 63 64 58 58 62 59 57 55 52 50 48
18 19 22 23 25 25 26 24 24 24 22 19 20 22 22 19 21 25 21 20 25 35 28 29 37 47 48 45 47 48 50 56 64 68 69 67 65 67 63 60 54 52 50 48
16 15 16 18 20 21 18 17 16 15 14 14 14 13 14 14 17 17 19 23 23 35 27 28 41 45 42 41 37 44 51 58 63 69 73 73 70 71 68 65 58 54 50 47
25 19 15 14 17 16 14 13 14 13 13 12 14 14 15 19 22 20 25 24 28 30 27 30 46 44 40 36 37 42 47 53 66 72 75 78 77 73 73 70 62 56 53 49
22 18 15 11 15 20 21 20 20 19 18 16 17 13 19 16 14 17 19 26 36 34 29 41 48 48 40 36 39 42 45 51 67 76 75 80 81 78 77 74 67 60 56 53
23 19 19 22 24 21 18 14 15 17 15 15 14 14 15 16 19 19 21 26 32 33 29 37 44 45 38 40 40 42 46 53 66 76 79 81 85 82 80 79 73 64 60 57
35 29 28 25 21 16 16 16 16 19 15 15 15 14 15 16 18 21 21 28 28 31 31 35 36 40 39 42 42 43 46 53 64 75 80 82 85 84 82 82 80 68 63 60
29 25 20 15 17 19 12 13 13 16 16 15 14 14 16 17 20 21 25 25 29 31 33 36 37 40 41 41 43 44 45 49 57 72 78 83 83 86 84 83 80 75 64 60
Wind_Direction_500mb
258 263 272 275 257 230 240 254 248 255 265 266 111 58 265 231 218 209 207 207 217 210 208 207 212 216 212 216 221 218 231 236 243 267 292 303 308 312 313 313 313 313 311 310
265 259 258 259 257 256 267 249 241 247 252 266 280 185 202 212 212 220 221 216 218 215 215 215 211 207 214 216 212 220 221 229 248 275 294 305 310 313 312 311 310 309 308 306
255 256 255 252 247 254 253 255 262 263 267 269 258 260 260 230 238 237 230 223 222 216 213 214 201 189 199 200 203 208 216 240 269 289 301 307 308 309 309 308 307 304 302 302
280 276 251 253 261 262 262 257 261 265 255 257 260 260 267 253 237 231 247 225 219 202 178 182 177 165 184 194 198 207 235 265 285 295 300 302 302 302 303 303 303 304 301 300
252 257 270 271 245 294 258 260 252 268 281 280 248 241 141 175 198 235 251 205 182 159 151 156 149 154 179 189 201 230 267 278 290 297 301 301 299 300 298 303 302 303 302 299
238 232 245 257 279 292 7 292 278 317 304 275 254 228 106 138 134 139 145 125 121 122 130 132 145 164 179 196 231 264 278 295 302 305 304 301 297 298 291 296 300 299 294 292
231 247 252 278 323 305 217 299 6 329 295 285 11 84 112 113 110 117 120 122 124 127 126 137 147 158 181 235 269 297 307 311 311 306 301 302 298 290 292 294 295 295 296 296
252 224 237 4 90 273 5 359 6 352 331 107 123 121 115 117 117 117 117 119 124 125 125 127 121 120 263 306 314 321 320 319 318 317 314 307 299 296 295 294 295 296 297 297
11 330 347 332 340 336 338 339 17 8 320 166 123 124 119 118 121 119 118 117 119 119 114 97 66 47 25 327 329 323 327 326 323 319 317 311 306 302 301 296 292 291 294 294
302 301 309 338 346 342 351 345 342 339 357 134 113 121 120 122 122 118 113 108 107 102 94 71 35 17 1 343 342 339 328 326 319 321 317 319 308 303 296 291 290 291 293 293
290 43 313 97 12 331 322 333 359 17 72 116 127 118 119 119 115 111 105 98 92 86 76 46 12 4 352 341 346 341 329 326 326 318 314 313 308 300 293 290 283 282 286 289
323 351 348 2 350 332 297 231 209 78 89 85 102 110 115 111 107 103 95 91 80 72 60 34 10 358 351 346 344 331 326 323 316 317 310 308 305 303 297 295 292 280 281 285
318 330 352 10 10 15 62 138 143 131 106 108 84 80 96 101 95 87 80 71 67 58 42 27 13 2 348 338 329 321 317 317 315 315 311 309 307 309 305 297 291 301 304 302
295 291 68 60 50 25 83 85 93 89 95 97 104 102 99 94 84 76 68 63 54 46 38 16 2 348 337 328 322 323 323 322 318 313 311 309 305 302 303 305 308 308 306 295
87 101 96 88 75 66 77 83 82 82 88 92 91 96 90 84 76 67 57 50 44 40 20 2 349 342 335 336 335 329 327 322 316 314 311 310 312 308 308 305 302 303 306 305
83 86 78 67 75 74 74 76 81 80 80 80 85 83 81 77 71 62 54 49 46 29 13 0 357 344 339 345 334 331 328 322 324 321 317 319 315 312 306 303 302 303 304 304
74 80 81 86 83 82 83 84 84 86 86 86 87 84 78 74 67 58 50 42 37 27 14 3 349 346 354 341 336 335 337 341 337 334 325 319 316 312 310 308 307 305 303 302
68 72 75 82 84 84 87 89 91 91 87 86 84 80 75 66 57 49 39 30 25 17 10 0 350 7 349 344 342 343 349 348 344 335 330 325 321 321 320 319 318 315 312 310
69 75 80 83 84 86 88 89 88 88 88 86 81 74 66 56 45 34 25 20 15 6 3 353 6 358 353 347 351 356 2 353 352 352 345 339 337 336 334 331 325 319 314 310
72 75 79 82 84 86 88 89 91 89 85 79 71 64 56 42 31 24 18 18 13 360 4 355 358 355 359 357 2 8 359 355 358 357 357 353 350 346 341 337 328 322 319 316
73 85 91 91 90 90 87 87 88 84 76 66 55 52 35 21 23 19 15 12 359 359 26 358 351 356 359 1 8 353 359 -0 1 2 1 358 355 353 350 344 339 335 330 326
61 73 86 90 92 90 86 81 75 68 54 42 38 19 21 15 14 17 18 11 1 355 25 352 354 357 357 9 360 354 357 358 0 4 5 4 0 359 356 355 348 345 343 339
24 36 60 81 85 84 86 81 68 55 43 32 352 356 7 23 9 20 3 1 2 7 17 350 355 358 6 3 1 357 356 356 2 6 7 6 4 2 2 0 358 354 353 351
350 13 30 72 89 82 73 72 64 51 50 47 27 38 43 24 16 16 7 355 351 16 1 346 356 5 12 358 359 356 355 355 3 8 8 9 6 5 5 4 1 1 1 -0
15 26 46 81 86 76 69 59 68 55 60 54 52 43 28 23 19 12 4 5 354 5 5 350 356 3 2 359 358 355 354 352 2 7 9 9 7 6 6 6 5 3 5 5
33 47 68 75 62 70 65 63 52 45 46 47 36 27 21 17 17 11 11 1 2 4 0 358 356 359 0 357 358 355 353 352 360 7 9 9 8 7 7 7 7 5 6 6
29 29 30 46 50 39 50 55 45 34 31 26 29 24 19 15 8 14 9 7 6 8 5 2 2 360 1 357 358 356 355 355 356 6 9 8 9 8 7 7 7 8 5 5
Wind_Speed_850mb
58 59 58 58 45 50 51 49 43 44 42 42 24 9 53 42 27 31 40 39 42 44 42 39 34 27 29 26 24 21 17 14 13 12 13 17 23 29 32 37 35 35 36 36
54 54 53 56 53 61 56 48 51 48 50 38 47 75 67 46 40 40 39 39 44 46 41 37 32 30 29 26 22 19 15 14 13 15 17 22 27 31 33 33 34 35 37 37
49 47 50 46 65 50 50 49 47 50 49 39 38 41 46 35 31 28 36 41 43 47 45 32 29 28 26 23 21 17 14 13 14 18 23 27 30 31 32 33 36 37 38 36
31 38 47 46 40 49 51 52 42 45 56 52 48 39 28 22 34 30 32 35 35 38 30 26 28 28 23 22 18 14 12 13 17 22 26 29 31 31 32 33 36 37 38 36
34 35 34 45 33 31 30 34 33 39 40 40 40 42 27 12 6 10 15 12 20 28 36 36 29 23 21 19 14 10 12 16 19 23 27 28 31 33 34 36 34 35 35 36
27 30 50 48 39 32 26 27 27 19 23 22 28 25 8 23 21 21 23 29 35 39 38 34 24 21 18 13 9 10 13 16 20 23 26 29 31 32 36 33 36 35 36 36
36 33 30 21 7 14 26 3 25 23 28 29 17 28 40 34 34 36 41 41 36 33 31 26 20 13 9 5 6 10 14 18 21 23 27 27 27 31 34 32 37 40 42 39
27 33 36 51 7 13 22 23 26 35 51 30 40 33 46 47 43 41 43 42 36 33 28 19 11 4 1 5 10 14 18 21 24 27 28 27 31 34 30 34 37 39 40 36
4 9 26 31 28 23 18 21 13 11 40 20 51 47 47 48 45 42 38 34 28 25 20 13 11 9 5 9 14 19 22 25 27 29 30 31 31 33 32 30 33 33 33 34
12 11 30 10 26 24 23 19 20 19 4 13 43 45 48 45 42 38 33 28 21 17 13 9 10 11 12 16 20 23 26 27 29 31 32 31 31 30 31 31 34 33 36 36
21 10 17 23 19 34 23 9 15 20 18 37 46 44 40 37 34 31 27 23 19 15 11 9 11 15 17 19 22 25 27 30 31 30 34 36 34 34 35 37 36 38 40 43
14 31 26 30 31 33 21 9 4 11 39 41 54 46 38 31 27 24 22 19 16 15 11 11 13 15 18 22 26 30 34 33 36 39 37 37 38 43 40 44 47 53 58 59
25 26 25 19 37 40 7 31 27 44 48 50 44 33 28 24 22 25 20 19 17 14 13 13 14 17 22 27 30 33 36 38 39 41 41 44 49 51 53 46 52 50 52 46
25 13 26 29 21 33 64 67 64 63 57 48 50 26 23 24 23 22 21 18 15 14 14 16 21 23 25 28 33 36 37 43 40 43 46 47 47 49 49 49 56 56 54 56
50 42 41 32 35 49 60 59 62 52 43 38 37 28 25 26 25 23 20 17 16 16 17 19 20 24 30 35 38 40 40 40 41 43 43 52 48 48 52 57 67 70 70 66
54 48 37 45 41 41 45 45 44 38 35 35 33 30 27 26 24 23 22 22 20 18 20 23 25 30 35 34 38 39 40 42 43 46 50 50 49 51 54 60 63 65 68 65
44 44 39 39 36 38 38 33 34 33 32 32 30 27 26 24 22 22 22 22 22 20 24 27 29 36 34 36 39 39 39 44 49 49 50 48 50 53 56 58 58 59 59 55
42 39 37 36 35 35 34 33 33 32 33 31 30 27 25 23 22 21 22 23 22 21 26 28 36 36 34 35 43 40 42 50 54 51 50 49 50 54 54 55 55 57 59 57
44 43 38 36 35 35 34 34 33 32 30 28 27 26 25 24 23 23 22 24 25 27 27 30 38 34 39 40 46 39 45 52 59 60 54 51 51 53 56 57 57 57 55 51
31 35 35 35 33 32 32 30 29 28 26 25 23 21 22 23 22 23 21 21 24 29 23 31 35 38 46 44 43 48 48 51 62 63 64 58 58 62 59 57 55 52 50 48
18 19 22 23 25 25 26 24 24 24 22 19 20 22 22 19 21 25 21 20 25 35 28 29 37 47 48 45 47 48 50 56 64 68 69 67 65 67 63 60 54 52 50 48
16 15 16 18 20 21 18 17 16 15 14 14 14 13 14 14 17 17 19 23 23 35 27 28 41 45 42 41 37 44 51 58 63 69 73 73 70 71 68 65 58 54 50 47
25 19 15 14 17 16 14 13 14 13 13 12 14 14 15 19 22 20 25 24 28 30 27 30 46 44 40 36 37 42 47 53 66 72 75 78 77 73 73 70 62 56 53 49
22 18 15 11 15 20 21 20 20 19 18 16 17 13 19 16 14 17 19 26 36 34 29 41 48 48 40 36 39 42 45 51 67 76 75 80 81 78 77 74 67 60 56 53
23 19 19 22 24 21 18 14 15 17 15 15 14 14 15 16 19 19 21 26 32 33 29 37 44 45 38 40 40 42 46 53 66 76 79 81 85 82 80 79 73 64 60 57
35 29 28 25 21 16 16 16 16 19 15 15 15 14 15 16 18 21 21 28 28 31 31 35 36 40 39 42 42 43 46 53 64 75 80 82 85 84 82 82 80 68 63 60
29 25 20 15 17 19 12 13 13 16 16 15 14 14 16 17 20 21 25 25 29 31 33 36 37 40 41 41 43 44 45 49 57 72 78 83 83 86 84 83 80 75 64 60
Wind_Direction_850mb
258 263 272 275 257 230 240 254 248 255 265 266 111 58 265 231 218 209 207 207 217 210 208 207 212 216 212 216 221 218 231 236 243 267 292 303 308 312 313 313 313 313 311 310
265 259 258 259 257 256 267 249 241 247 252 266 280 185 202 212 212 220 221 216 218 215 215 215 211 207 214 216 212 220 221 229 248 275 294 305 310 313 312 311 310 309 308 306
255 256 255 252 247 254 253 255 262 263 267 269 258 260 260 230 238 237 230 223 222 216 213 214 201 189 199 200 203 208 216 240 269 289 301 307 308 309 309 308 307 304 302 302
280 276 251 253 261 262 262 257 261 265 255 257 260 260 267 253 237 231 247 225 219 202 178 182 177 165 184 194 198 207 235 265 285 295 300 302 302 302 303 303 303 304 301 300
252 257 270 271 245 294 258 260 252 268 281 280 248 241 141 175 198 235 251 205 182 159 151 156 149 154 179 189 201 230 267 278 290 297 301 301 299 300 298 303 302 303 302 299
238 232 245 257 279 292 7 292 278 317 304 275 254 228 106 138 134 139 145 125 121 122 130 132 145 164 179 196 231 264 278 295 302 305 304 301 297 298 291 296 300 299 294 292
231 247 252 278 323 305 217 299 6 329 295 285 11 84 112 113 110 117 120 122 124 127 126 137 147 158 181 235 269 297 307 311 311 306 301 302 298 290 292 294 295 295 296 296
252 224 237 4 90 273 5 359 6 352 331 107 123 121 115 117 117 117 117 119 124 125 125 127 121 120 263 306 314 321 320 319 318 317 314 307 299 296 295 294 295 296 297 297
11 330 347 332 340 336 338 339 17 8 320 166 123 124 119 118 121 119 118 117 119 119 114 97 66 47 25 327 329 323 327 326 323 319 317 311 306 302 301 296 292 291 294 294
302 301 309 338 346 342 351 345 342 339 357 134 113 121 120 122 122 118 113 108 107 102 94 71 35 17 1 343 342 339 328 326 319 321 317 319 308 303 296 291 290 291 293 293
290 43 313 97 12 331 322 333 359 17 72 116 127 118 119 119 115 111 105 98 92 86 76 46 12 4 352 341 346 341 329 326 326 318 314 313 308 300 293 290 283 282 286 289
323 351 348 2 350 332 297 231 209 78 89 85 102 110 115 111 107 103 95 91 80 72 60 34 10 358 351 346 344 331 326 323 316 317 310 308 305 303 297 295 292 280 281 285
318 330 352 10 10 15 62 138 143 131 106 108 84 80 96 101 95 87 80 71 67 58 42 27 13 2 348 338 329 321 317 317 315 315 311 309 307 309 305 297 291 301 304 302
295 291 68 60 50 25 83 85 93 89 95 97 104 102 99 94 84 76 68 63 54 46 38 16 2 348 337 328 322 323 323 322 318 313 311 309 305 302 303 305 308 308 306 295
87 101 96 88 75 66 77 83 82 82 88 92 91 96 90 84 76 67 57 50 44 40 20 2 349 342 335 336 335 329 327 322 316 314 311 310 312 308 308 305 302 303 306 305
83 86 78 67 75 74 74 76 81 80 80 80 85 83 81 77 71 62 54 49 46 29 13 0 357 344 339 345 334 331 328 322 324 321 317 319 315 312 306 303 302 303 304 304
74 80 81 86 83 82 83 84 84 86 86 86 87 84 78 74 67 58 50 42 37 27 14 3 349 346 354 341 336 335 337 341 337 334 325 319 316 312 310 308 307 305 303 302
68 72 75 82 84 84 87 89 91 91 87 86 84 80 75 66 57 49 39 30 25 17 10 0 350 7 349 344 342 343 349 348 344 335 330 325 321 321 320 319 318 315 312 310
69 75 80 83 84 86 88 89 88 88 88 86 81 74 66 56 45 34 25 20 15 6 3 353 6 358 353 347 351 356 2 353 352 352 345 339 337 336 334 331 325 319 314 310
72 75 79 82 84 86 88 89 91 89 85 79 71 64 56 42 31 24 18 18 13 360 4 355 358 355 359 357 2 8 359 355 358 357 357 353 350 346 341 337 328 322 319 316
73 85 91 91 90 90 87 87 88 84 76 66 55 52 35 21 23 19 15 12 359 359 26 358 351 356 359 1 8 353 359 -0 1 2 1 358 355 353 350 344 339 335 330 326
61 73 86 90 92 90 86 81 75 68 54 42 38 19 21 15 14 17 18 11 1 355 25 352 354 357 357 9 360 354 357 358 0 4 5 4 0 359 356 355 348 345 343 339
24 36 60 81 85 84 86 81 68 55 43 32 352 356 7 23 9 20 3 1 2 7 17 350 355 358 6 3 1 357 356 356 2 6 7 6 4 2 2 0 358 354 353 351
350 13 30 72 89 82 73 72 64 51 50 47 27 38 43 24 16 16 7 355 351 16 1 346 356 5 12 358 359 356 355 355 3 8 8 9 6 5 5 4 1 1 1 -0
15 26 46 81 86 76 69 59 68 55 60 54 52 43 28 23 19 12 4 5 354 5 5 350 356 3 2 359 358 355 354 352 2 7 9 9 7 6 6 6 5 3 5 5
33 47 68 75 62 70 65 63 52 45 46 47 36 27 21 17 17 11 11 1 2 4 0 358 356 359 0 357 358 355 353 352 360 7 9 9 8 7 7 7 7 5 6 6
29 29 30 46 50 39 50 55 45 34 31 26 29 24 19 15 8 14 9 7 6 8 5 2 2 360 1 357 358 356 355 355 356 6 9 8 9 8 7 7 7 8 5 5